sat.trackr.live / text

‹ back to catalog

STARLINK-5798

NORAD 56040 · 2023-042BG

PAYLOAD ACTIVE UNKNOWN

§ Identity

Operator
Country
US
Launch date
2023-03-24
Launch site
AFETR
Launch vehicle
Mass (kg)
RCS (m²)

Purposes: comms

External: N2YO · Heavens-Above · Gunter

§ Orbital elements

Epoch: 2026-05-24T21:30:49.765248Z

Period
94.27 min
Inclination
43.0037°
Eccentricity
0.0001709
Mean motion
15.27574550 rev/d
Perigee alt
481.9 km
Apogee alt
484.2 km
Semi-major
6,861.2 km
B*
1.6375e-5
RAAN
320.6482°
Arg perigee
270.4392°
Mean anomaly
89.6263°
Rev number
17,485

§ Raw data

STARLINK-57981 56040U 23042BG  26144.89640932  .00000188  00000+0  16375-4 0  99962 56040  43.0037 320.6482 0001709 270.4392  89.6263 15.27574550174853

JSON: /api/v1/satellites/56040 · /tle

For live sub-satellite position, see the globe view (requires WebGL).

§ Visibility from observer

Set your observer location to see the next 7 days of passes ≥ 10°. The values pass through the URL so the page stays shareable.

No JS? Fill the form by hand. The geolocation button needs JavaScript.